This demonstration page uses our WeatherBlox Daily Observations layout. Learn more.

Left ArrowRight Arrow

38.88101, -77.10428

Hourly Observations for July 23, 2016

Temp ( °F °C ) Dew Point ( °F °C ) Humidity (%) Winds ( mph kmh ) Pressure ( in mb ) Visibility ( mi km ) Precip ( " mm )
12:52 am 00:52 Clear 83 28.3 71 21.7 67 67 SW 8 13 29.93 1014 10 16.0934 0 0
1:52 am 01:52 Clear 82 27.8 72 22.2 72 72 WSW 5 7 29.93 1013 10 16.0934 0 0
2:52 am 02:52 Clear 81 27.2 73 22.8 77 77 S 5 7 29.93 1013 10 16.0934 0 0
3:52 am 03:52 Mostly Clear 81 27.2 74 23.3 79 79 SSE 5 7 29.93 1014 10 16.0934 0 0
4:52 am 04:52 Clear 80 26.7 73 22.8 79 79 SW 5 7 29.93 1014 10 16.0934 0 0
5:52 am 05:52 Mostly Clear 79 26 72 22 79 79 N 9 15 29.94 1014 10 16.0934 0 0
6:52 am 06:52 Mostly Sunny 81 27.2 71 21.7 72 72 NNW 7 11 29.94 1014 10 16.0934 0 0
7:52 am 07:52 Partly Cloudy 85 29.4 69 20.6 59 59 NW 13 20 29.95 1014 10 16.0934 0 0
8:52 am 08:52 Mostly Sunny 87 30.6 69 20.6 55 55 NW 13 20 29.96 1014 10 16.0934 0 0
9:52 am 09:52 Mostly Sunny 90 32.2 71 21.7 54 54 NNW 9 15 29.95 1014 10 16.0934 0 0
10:52 am 10:52 Mostly Sunny 92 33.3 72 22.2 52 52 N 10 17 29.96 1015 10 16.0934 0 0
11:52 am 11:52 Partly Cloudy 94 34.4 74 23.3 52 52 NNE 12 19 29.94 1014 10 16.0934 0 0
12:52 pm 12:52 Mostly Cloudy 95 35 73 22.8 49 49 NNE 9 15 29.93 1014 10 16.0934 0 0
1:52 pm 13:52 Mostly Cloudy 94 34.4 72 22.2 49 49 WSW 9 15 29.92 1013 10 16.0934 0 0
2:52 pm 14:52 Mostly Cloudy 96 35.6 72 22.2 46 46 SSW 10 17 29.89 1012 10 16.0934 0 0
3:29 pm 15:29 Partly Cloudy 98 36.7 70 21.1 40 40 W 15 24 29.88 1012 10 16.0934 0 0
3:52 pm 15:52 Partly Cloudy 97 36.1 72 22.2 45 45 WSW 9 15 29.88 1012 10 16.0934 0 0
4:52 pm 16:52 Mostly Cloudy 98 36.7 70 21.1 40 40 WSW 12 19 29.87 1011 10 16.0934 0 0
5:34 pm 17:34 Mostly Cloudy 97 36 70 21 42 42 WSW 15 24 29.85 1011 10 16.0934 0 0
5:52 pm 17:52 Mostly Cloudy 96 35.6 70 21.1 43 43 SW 12 19 29.86 1011 10 16.0934 0 0
6:52 pm 18:52 Mostly Cloudy 96 35.6 68 20 40 40 SW 14 22 29.86 1011 10 16.0934 0 0
7:13 pm 19:13 Mostly Cloudy 95 35 69 20.6 43 43 SW 12 19 29.88 1012 10 16.0934 0 0
7:52 pm 19:52 Mostly Cloudy 93 33.9 70 21.1 47 47 SSW 9 15 29.88 1012 10 16.0934 0 0
8:21 pm 20:21 Mostly Cloudy with Thunderstorms 93 33.9 70 21.1 47 47 SW 10 17 29.88 1012 10 16.0934 0 0
8:42 pm 20:42 Mostly Cloudy 91 33 70 21 49 49 SW 12 19 29.88 1012 10 16.0934 0 0
8:52 pm 20:52 Mostly Cloudy 92 33.3 70 21.1 49 49 SW 8 13 29.88 1012 10 16.0934 0 0
9:19 pm 21:19 Mostly Cloudy 91 32.8 71 21.7 52 52 SW 8 13 29.91 1013 10 16.0934 0 0
9:52 pm 21:52 Mostly Cloudy 91 32.8 72 22.2 54 54 WSW 7 11 29.9 1013 10 16.0934 0 0
10:52 pm 22:52 Mostly Clear 88 31.1 72 22.2 59 59 W 3 6 29.91 1013 10 16.0934 0 0
11:52 pm 23:52 Mostly Cloudy 86 30 75 23.9 70 70 SSE 3 6 29.92 1013 10 16.0934 0 0

Powered by AerisWeather